User: anonymous   Login
Location: Camerons Lookout
(40.9833°S, 175.9333°E)
Time: 06:19:22
(UTC+00:00)
Language:

Okean 2 Rocket - Orbit

View from above orbital plane
View from above orbital plane
View from above satellite
View from above satellite

Ground track
Ground track

The orbit is defined by the following mean orbital elements,

1 20511U          26067.89460360 +.00000000 +00000-0 +84978-4 0 00009
2 20511  82.5201 223.8327 0017656  94.4652 265.8580 14.82143989    04
Epoch (UTC): 08 March 2026 21:28:13
Eccentricity: 0.0017656
inclination: 82.5201°
perigee height: 610 km
apogee height: 635 km
right ascension of ascending node: 223.8327°
argument of perigee: 94.4652°
revolutions per day: 14.82143989
mean anomaly at epoch: 265.8580°

The dashed part of the orbit path shows where the satellite is in the earth's shadow,  

DLR